Wind_Speed
16 13 9 8 18 49 64 72 76 77 78 78 79 80 84 88 90 91 94 94 93 94 96 105 102 105 100 97 98 99 91 86 83 81 83 83 80 75 79 73 70 69 65 67 66
22 19 17 15 15 17 37 61 69 76 78 80 81 80 81 84 90 91 93 92 92 91 94 96 103 100 103 105 100 100 96 90 89 85 85 86 80 76 76 75 74 76 72 62 62
27 25 24 21 23 24 26 29 52 71 78 80 80 82 83 83 86 89 92 95 96 94 96 93 94 94 98 101 100 100 96 94 98 98 99 98 89 84 82 77 75 78 76 78 73
33 33 31 28 28 28 33 34 35 43 68 77 83 82 83 84 86 87 91 95 96 98 99 99 99 97 96 96 97 97 94 91 93 99 98 99 97 88 85 78 74 69 73 75 75
41 40 38 37 36 35 35 39 40 41 44 59 76 83 86 85 85 88 91 93 96 100 100 108 106 103 101 99 102 94 94 97 101 102 98 99 92 88 82 78 73 67 65 66 68
46 46 46 44 42 42 39 39 40 46 46 48 51 69 82 88 90 90 92 93 95 97 102 103 113 112 109 105 105 103 101 99 99 102 100 102 97 100 84 89 85 81 80 72 63
48 48 48 47 46 42 42 41 41 44 47 51 53 54 60 76 88 93 96 95 97 100 100 103 109 107 111 110 107 104 106 106 102 101 100 101 102 89 86 89 91 89 84 77 79
42 44 45 46 47 46 45 46 45 47 48 50 54 59 62 64 68 82 94 99 101 101 102 104 107 111 109 118 111 112 115 108 101 105 103 110 99 85 91 95 89 91 92 88 86
36 33 34 37 39 41 42 46 48 50 51 53 55 58 63 67 71 73 78 90 100 105 108 108 109 110 112 115 125 119 112 109 104 111 113 116 104 95 100 101 94 90 91 90 88
28 31 32 33 34 35 35 38 40 43 48 52 56 58 62 66 69 74 78 82 86 96 108 113 112 113 114 119 116 118 124 123 114 109 118 116 103 98 103 101 96 95 92 92 88
27 27 27 27 28 30 32 32 34 36 37 41 45 50 56 63 69 74 79 84 89 91 96 104 113 119 120 120 118 121 122 121 118 118 119 115 104 105 105 102 100 97 93 92 90
24 25 23 23 23 25 28 30 33 37 39 41 45 48 51 56 62 71 77 85 90 95 97 99 102 115 123 125 121 121 121 118 119 121 119 117 109 106 102 97 95 92 93 95 95
21 21 21 22 22 24 26 29 33 36 40 45 49 54 58 61 64 68 72 79 85 92 99 102 107 109 112 119 126 125 123 122 121 121 120 116 110 107 103 98 94 91 89 87 85
24 25 25 27 28 29 33 37 40 43 47 51 56 60 65 68 70 73 72 75 79 83 91 97 107 111 113 113 116 122 126 126 124 120 114 117 111 109 105 100 96 91 90 91 92
31 31 31 33 33 34 35 37 40 44 48 52 56 61 62 66 68 72 74 77 80 83 84 87 96 105 110 114 120 116 118 125 127 121 116 112 113 103 103 101 98 98 100 99 95
35 34 32 32 34 34 34 36 39 42 46 51 54 58 61 65 67 68 69 72 76 78 75 76 86 92 100 105 110 112 118 116 114 119 119 106 112 95 102 102 105 102 99 97 90
40 39 37 38 39 40 40 41 45 48 48 50 53 55 58 60 64 65 66 66 64 65 68 70 76 79 86 93 97 101 108 111 110 109 102 104 113 96 97 102 103 104 101 93 87
42 44 43 42 42 44 45 46 49 49 53 58 54 58 56 56 61 60 56 57 55 56 59 61 64 66 71 78 85 91 94 97 100 101 101 103 95 91 99 100 99 99 96 95 91
43 44 45 46 47 49 49 52 54 54 54 61 58 59 58 59 54 55 53 48 43 42 44 49 56 57 61 66 69 74 80 88 88 89 95 93 90 90 91 96 97 94 92 86 79
43 46 47 48 49 51 53 58 57 59 62 60 56 58 61 55 54 51 43 37 33 33 34 40 47 48 51 56 57 61 68 72 79 78 73 87 91 91 94 92 84 85 80 78 72
45 44 47 50 51 53 57 60 61 61 62 55 57 59 56 52 44 38 32 28 25 26 28 32 35 37 39 45 48 55 57 59 67 71 70 83 83 93 93 88 74 71 70 66 62
47 46 48 52 54 55 57 61 64 64 57 52 57 59 54 47 38 31 26 24 23 21 23 26 26 29 31 36 39 47 49 53 57 63 69 79 88 91 87 84 76 69 62 56 50
49 49 50 52 55 55 57 60 62 62 53 52 56 55 52 42 33 27 25 23 20 20 19 20 22 24 26 31 36 42 46 49 53 57 64 71 76 85 82 79 74 69 65 55 47
47 48 49 52 54 53 55 58 60 57 53 51 55 52 47 38 32 30 25 23 22 18 16 15 17 19 21 27 31 38 42 45 48 55 64 72 81 88 80 73 68 65 61 53 44
42 44 47 49 51 49 53 53 56 53 52 51 53 50 44 37 29 26 23 19 18 16 12 8 12 14 19 24 30 37 40 45 49 55 64 73 76 75 72 72 64 61 57 50 41
35 39 47 47 51 51 48 49 52 49 49 49 51 50 44 36 31 29 25 20 15 13 9 5 7 12 17 22 28 34 37 44 49 56 62 65 67 63 65 66 61 59 53 48 40
39 42 48 47 49 47 48 46 48 49 45 47 49 48 42 34 29 25 21 16 10 6 5 3 4 9 14 18 23 31 38 45 51 58 65 67 71 70 68 63 61 56 52 46 38
Wind_Direction
339 334 320 298 249 235 236 235 234 233 231 231 231 232 232 233 233 235 235 238 237 239 237 235 237 237 238 240 240 240 242 245 242 246 247 247 246 249 245 249 249 252 256 259 261
316 315 308 291 271 252 242 238 237 236 236 235 233 232 233 234 235 235 236 237 237 236 237 236 237 237 238 239 240 243 244 245 241 242 244 244 244 249 250 252 252 253 253 257 262
297 296 297 289 274 263 254 245 240 237 237 237 238 237 235 235 235 236 236 234 235 234 237 236 236 236 238 241 242 243 243 241 245 247 247 246 245 247 250 252 253 254 256 257 259
288 286 285 281 277 272 261 253 248 242 240 238 237 238 238 238 237 238 238 237 236 238 236 236 238 240 240 240 238 237 238 242 244 244 245 247 247 249 250 254 255 256 257 257 260
286 284 282 280 277 272 266 257 252 247 244 240 239 239 238 238 239 239 239 238 239 239 237 236 238 239 239 238 239 238 239 239 240 244 246 248 249 249 249 249 252 245 251 254 258
283 283 282 280 278 275 269 261 252 249 248 248 245 240 240 239 239 239 238 240 239 240 239 239 238 238 240 240 241 242 240 238 238 240 243 247 248 247 249 250 250 249 250 247 246
282 279 277 275 274 270 266 263 257 254 250 247 246 245 243 242 240 240 240 240 240 239 239 241 239 241 238 239 241 243 242 240 240 244 246 246 245 249 249 249 249 251 247 246 250
284 279 277 275 273 271 267 264 262 259 256 254 251 246 244 243 242 242 242 241 241 241 241 240 240 241 241 237 238 239 243 244 245 244 247 248 245 245 248 251 248 250 247 250 250
295 287 282 279 276 272 268 266 262 259 257 255 252 248 247 245 244 243 243 244 242 242 243 242 241 241 241 240 239 238 240 244 244 247 246 247 246 246 248 246 247 247 249 251 253
309 303 298 290 283 278 273 267 264 261 260 258 256 254 252 248 249 248 246 245 244 243 242 242 243 243 241 241 240 242 241 239 239 244 247 247 248 247 248 247 245 247 249 250 251
304 301 300 296 293 283 278 272 269 266 265 263 260 260 259 258 254 254 251 249 247 245 244 244 244 243 243 242 241 241 241 240 241 239 244 248 244 244 246 248 248 248 250 253 255
320 312 301 296 293 290 285 279 274 272 267 261 260 259 259 259 261 257 256 254 252 250 248 247 245 245 242 243 242 243 243 241 241 242 241 243 246 247 245 245 249 250 250 252 254
331 323 315 308 300 293 287 285 284 280 277 274 271 264 263 263 263 262 262 260 258 256 253 250 249 248 247 245 243 243 243 242 241 241 241 242 243 243 246 248 250 252 251 252 253
333 325 319 313 305 299 292 288 285 283 282 280 277 275 274 274 273 272 269 267 263 259 255 253 252 250 248 248 247 245 243 243 243 242 241 242 242 242 244 246 248 252 253 255 256
319 318 314 310 305 300 297 296 295 292 289 284 280 278 275 275 275 276 274 270 265 261 257 256 252 251 250 248 247 246 244 244 244 243 241 242 244 241 243 247 248 247 247 252 255
321 317 311 309 310 307 302 301 300 300 297 292 288 283 280 279 280 279 277 271 268 266 262 255 253 250 249 248 247 246 246 245 244 244 243 242 244 239 242 243 244 245 248 250 254
319 317 313 310 309 310 309 307 306 304 307 305 297 292 288 289 288 286 281 275 268 266 263 259 255 250 248 248 247 245 244 244 243 243 245 242 242 239 240 241 243 246 247 249 251
313 311 311 311 311 313 312 311 312 311 311 314 305 297 297 296 297 289 283 281 279 272 266 261 257 251 248 246 244 241 242 242 242 240 240 240 241 241 238 239 241 243 246 249 252
314 313 311 312 312 313 315 316 317 316 315 317 311 308 308 308 301 293 293 291 281 271 265 260 256 251 247 246 244 241 240 238 238 237 234 234 237 238 240 239 238 240 244 247 249
314 314 313 313 314 315 318 319 321 323 322 319 314 314 316 312 306 303 300 292 279 271 263 258 255 252 245 244 241 237 235 233 234 234 228 230 232 233 235 237 237 239 241 245 247
310 312 312 312 314 316 320 321 324 327 325 321 318 321 321 317 314 309 305 295 285 275 265 259 254 249 242 239 234 233 231 228 228 225 222 225 226 228 231 234 235 237 238 241 243
307 308 309 311 313 318 322 324 324 327 326 324 324 326 327 325 325 322 313 304 296 287 273 264 256 248 239 236 230 229 227 223 222 219 216 217 219 222 225 229 230 231 235 237 239
305 306 309 312 315 320 322 323 324 327 328 327 329 331 332 331 331 327 320 312 304 297 284 269 254 240 237 232 224 222 221 218 216 211 209 208 213 221 222 223 224 226 230 230 232
303 303 306 309 313 320 320 322 325 328 329 331 333 335 336 336 334 328 327 321 313 309 297 273 255 242 232 227 219 217 214 212 207 204 200 204 208 211 214 215 218 220 224 225 223
307 307 303 308 315 320 320 323 326 328 332 333 336 339 342 342 338 333 333 329 321 316 309 267 251 238 220 221 215 211 206 202 200 196 193 199 202 208 209 211 210 213 216 215 214
315 307 315 314 316 322 322 326 328 329 332 334 338 343 348 345 339 341 339 339 339 335 327 277 249 222 210 212 210 203 198 195 190 189 187 193 201 201 204 205 205 206 205 204 204
315 312 310 317 316 323 321 330 329 330 334 336 341 346 351 348 348 348 343 347 352 356 359 337 259 201 201 203 204 197 190 188 185 182 183 188 193 193 194 197 200 198 196 195 197
Height
10669 10668 10668 10669 10670 10674 10680 10685 10690 10696 10701 10703 10707 10715 10721 10727 10734 10740 10744 10749 10761 10768 10771 10780 10784 10791 10794 10804 10810 10813 10832 10842 10841 10838 10836 10842 10852 10857 10864 10872 10875 10877 10881 10887 10885
10667 10666 10665 10665 10666 10667 10668 10672 10677 10683 10687 10689 10695 10701 10706 10713 10719 10723 10730 10736 10745 10751 10752 10761 10766 10772 10777 10785 10793 10800 10815 10828 10820 10824 10817 10821 10839 10845 10855 10861 10865 10868 10871 10875 10876
10662 10662 10661 10661 10660 10660 10660 10661 10663 10667 10670 10675 10682 10687 10692 10696 10700 10709 10712 10716 10721 10729 10735 10742 10747 10754 10762 10769 10781 10787 10807 10805 10801 10803 10797 10807 10828 10834 10841 10853 10854 10853 10860 10864 10866
10654 10653 10654 10653 10653 10653 10652 10653 10653 10653 10655 10660 10666 10672 10677 10681 10687 10690 10693 10700 10707 10714 10719 10725 10730 10737 10745 10754 10756 10764 10783 10786 10788 10783 10785 10793 10803 10819 10830 10840 10839 10843 10846 10852 10854
10643 10642 10642 10642 10642 10643 10643 10643 10644 10644 10643 10645 10650 10655 10659 10664 10669 10673 10677 10682 10688 10693 10699 10705 10711 10716 10728 10734 10733 10754 10765 10767 10767 10766 10773 10773 10796 10802 10819 10823 10827 10834 10835 10837 10841
10632 10630 10629 10629 10629 10628 10629 10631 10633 10633 10633 10634 10635 10638 10642 10647 10650 10652 10656 10660 10667 10672 10677 10683 10688 10697 10708 10714 10719 10728 10735 10744 10748 10752 10758 10759 10778 10771 10812 10806 10813 10817 10823 10827 10828
10619 10617 10616 10616 10615 10616 10616 10617 10619 10619 10620 10621 10622 10623 10623 10627 10631 10633 10637 10642 10646 10650 10655 10661 10666 10674 10685 10690 10700 10706 10713 10720 10733 10741 10743 10741 10749 10784 10784 10788 10792 10798 10806 10812 10816
10606 10604 10603 10601 10601 10601 10603 10603 10605 10605 10606 10606 10607 10609 10609 10609 10611 10612 10615 10621 10626 10629 10632 10637 10641 10651 10660 10667 10676 10682 10684 10700 10730 10721 10729 10714 10743 10778 10766 10765 10779 10779 10788 10797 10804
10593 10591 10591 10588 10587 10587 10588 10588 10589 10589 10589 10589 10589 10589 10590 10592 10593 10596 10596 10598 10603 10606 10608 10612 10619 10627 10632 10641 10644 10659 10679 10689 10691 10696 10694 10688 10737 10755 10742 10743 10757 10766 10771 10780 10789
10584 10581 10580 10578 10576 10576 10575 10575 10575 10575 10574 10574 10574 10575 10573 10574 10576 10577 10578 10578 10579 10582 10585 10590 10595 10602 10606 10607 10627 10641 10640 10650 10664 10672 10665 10683 10721 10733 10719 10726 10746 10749 10758 10764 10775
10579 10576 10573 10569 10566 10565 10565 10564 10564 10563 10562 10560 10559 10558 10556 10555 10556 10556 10555 10556 10557 10559 10561 10567 10573 10575 10573 10582 10602 10603 10613 10630 10646 10649 10652 10671 10697 10702 10707 10711 10728 10740 10744 10752 10760
10575 10571 10568 10564 10561 10559 10556 10555 10555 10553 10552 10549 10546 10543 10541 10538 10535 10534 10535 10534 10534 10535 10539 10543 10547 10538 10547 10557 10571 10576 10589 10610 10615 10620 10634 10652 10673 10679 10691 10705 10713 10723 10733 10738 10742
10570 10566 10563 10559 10557 10554 10550 10547 10544 10541 10538 10535 10531 10528 10524 10522 10517 10516 10513 10511 10509 10510 10511 10519 10514 10516 10522 10531 10542 10550 10563 10576 10587 10595 10612 10628 10649 10665 10677 10688 10699 10706 10713 10719 10724
10566 10562 10558 10554 10550 10547 10544 10539 10535 10530 10526 10522 10516 10511 10506 10500 10497 10492 10490 10486 10481 10480 10482 10486 10480 10487 10494 10502 10509 10520 10535 10540 10553 10570 10602 10602 10627 10643 10661 10674 10684 10692 10696 10698 10701
10561 10557 10552 10546 10542 10538 10534 10529 10524 10518 10512 10507 10500 10492 10486 10481 10476 10466 10462 10456 10450 10447 10450 10452 10453 10453 10459 10470 10475 10488 10498 10505 10528 10547 10568 10590 10597 10637 10647 10659 10669 10671 10673 10680 10689
10554 10549 10544 10538 10532 10527 10522 10518 10511 10505 10497 10489 10480 10472 10465 10459 10451 10444 10436 10428 10421 10416 10418 10422 10417 10420 10424 10434 10444 10459 10467 10480 10501 10516 10539 10578 10573 10623 10624 10640 10639 10647 10657 10664 10677
10546 10540 10534 10528 10522 10516 10511 10505 10498 10488 10481 10472 10460 10451 10444 10437 10425 10416 10406 10397 10396 10394 10390 10390 10388 10392 10395 10405 10414 10426 10438 10454 10476 10493 10522 10551 10552 10598 10609 10610 10620 10631 10642 10656 10667
10537 10530 10524 10518 10511 10504 10498 10492 10482 10473 10462 10452 10442 10429 10424 10415 10401 10388 10384 10374 10372 10367 10363 10361 10362 10367 10371 10377 10386 10400 10411 10431 10450 10475 10498 10511 10533 10576 10582 10590 10601 10611 10626 10640 10655
10527 10519 10513 10507 10501 10493 10486 10478 10468 10459 10447 10436 10421 10409 10399 10390 10380 10367 10360 10353 10350 10345 10343 10341 10340 10346 10350 10355 10365 10379 10393 10408 10424 10441 10462 10501 10517 10540 10554 10568 10581 10596 10610 10628 10645
10518 10509 10501 10494 10489 10481 10473 10463 10455 10442 10430 10418 10407 10395 10381 10367 10355 10347 10340 10334 10330 10327 10326 10325 10324 10328 10333 10338 10348 10359 10368 10386 10402 10419 10450 10475 10499 10522 10527 10540 10568 10585 10604 10614 10630
10506 10499 10490 10482 10477 10469 10460 10449 10439 10431 10417 10404 10391 10380 10366 10352 10340 10330 10325 10319 10316 10313 10312 10311 10312 10315 10319 10323 10332 10339 10352 10368 10381 10402 10429 10448 10483 10489 10504 10527 10558 10575 10589 10602 10616
10494 10489 10481 10471 10465 10458 10448 10437 10426 10417 10405 10394 10380 10368 10353 10339 10328 10320 10315 10309 10305 10304 10301 10300 10300 10302 10307 10312 10321 10328 10341 10353 10368 10388 10407 10426 10443 10470 10496 10515 10544 10562 10576 10591 10604
10481 10476 10470 10461 10454 10447 10438 10428 10417 10406 10395 10384 10371 10356 10344 10330 10320 10313 10307 10301 10298 10295 10292 10291 10292 10293 10298 10303 10309 10317 10328 10340 10352 10370 10394 10415 10444 10460 10483 10505 10528 10550 10564 10582 10594
10472 10466 10460 10451 10446 10439 10429 10419 10407 10397 10386 10376 10364 10349 10335 10323 10314 10307 10300 10295 10290 10288 10287 10285 10286 10288 10292 10295 10301 10307 10316 10327 10342 10357 10376 10398 10419 10438 10467 10494 10520 10538 10554 10571 10583
10460 10455 10450 10443 10439 10432 10422 10413 10401 10388 10377 10368 10356 10343 10330 10317 10311 10304 10297 10291 10286 10283 10282 10281 10282 10284 10285 10289 10293 10298 10307 10317 10329 10345 10366 10383 10406 10435 10462 10483 10511 10527 10546 10563 10576
10452 10446 10440 10435 10428 10422 10413 10405 10393 10384 10373 10363 10351 10338 10325 10315 10306 10299 10294 10289 10285 10282 10280 10279 10279 10279 10281 10283 10288 10293 10303 10314 10323 10342 10360 10385 10411 10440 10463 10483 10504 10520 10539 10556 10571
10444 10439 10432 10427 10418 10411 10403 10398 10387 10376 10368 10358 10346 10335 10324 10314 10306 10299 10294 10290 10285 10280 10277 10276 10277 10278 10279 10281 10289 10294 10301 10312 10326 10342 10360 10381 10396 10425 10451 10478 10496 10515 10534 10552 10567